RS1S

Last updated on Sun Aug 28 2022 00:02:06 GMT+0000 (Coordinated Universal Time)

1 53309U 98067TU 22239.46233751 .00027875 00000+0 45237-3 0 9991 2 53309 51.6424 343.1625 0001721 173.6730 186.4282 15.52517682 5734
UTC large
Height (km)
Speed (km/s)
/
Latitude / Longitude
Inclination (degrees)
Orbital Period (minutes)
Azimuth
Elevation
Range (km)
Doppler Factor

Next 0 passes for location: London (51.5072 / 0.1276)

Sorry there are no passes over London.